Location: Holkham
(52.9500°N, 0.8167°E)
Time: 18:21:18
(UTC+00:00)

Cosmos 2082 Rocket - Pass Details

Date: 19 May 2025
Orbit: 831 x 853 km, 71.0° (Epoch: 22 June)

Event Time Altitude Azimuth Distance (km) Brightness Sun altitude
Exits shadow 21:41:43 15° 164° (SSE) 2,120 3.7 -11.7°
Maximum altitude 21:45:41 33° 107° (ESE) 1,365 2.9 -12.0°
Drops below altitude 10° 21:50:39 10° 45° (NE) 2,457 4.8 -12.4°
Sets 21:53:18 0° 36° (NE) 3,399 5.7 -12.6°
